COSMOS 2584 (704K)

Last updated on Wed Oct 29 2025 00:03:20 GMT+0000 (Coordinated Universal Time)

1 63130U 25042A 25300.85770076 .00000043 00000+0 00000+0 0 9991 2 63130 64.9511 80.7085 0007086 206.0509 153.9125 2.13103276 5097
UTC large
Height (km)
Speed (km/s)
/
Latitude / Longitude
Inclination (degrees)
Orbital Period (minutes)
Azimuth
Elevation
Range (km)
Doppler Factor

Next 0 passes for location: London (51.5072 / 0.1276)

Sorry there are no passes over London.